Kerkyra, Greece

1:26 PM EET on November 23, 2017 (GMT +0200)
Ioannis Kapodistrias

Weather History for LGKR - November, 2017

Change the Weather History Date:

Tuesday, November 14, 2017

  Actual Average Record
Temperature  
Mean Temperature 61 °F -  
Max Temperature 65 °F 63 °F 75 °F (2010)
Min Temperature 57 °F 47 °F 33 °F (2008)
Degree Days  
Heating Degree Days 4    
Growing Degree Days 11 (Base 50)    
Moisture  
Dew Point 57 °F    
Average Humidity 84    
Maximum Humidity 100    
Minimum Humidity 66    
Precipitation  
Precipitation 0.35 in 0.24 in - ()
Sea Level Pressure  
Sea Level Pressure 29.74 in    
Wind  
Wind Speed 13 mph ()    
Max Wind Speed 26 mph    
Max Gust Speed 39 mph    
Visibility 5.5 miles    
Events Rain , Thunderstorm    
Averages and records for this station are not official NWS values.
T = Trace of Precipitation, MM = Missing Value Source: Averaged Metar Reports

Daily Weather History Graph

Daily Weather History Graph

Search for Another Location

Airport or City:

Trip Planner

Search our weather history database for the weather conditions in past years. The results will help you decide how hot, cold, wet, or windy it might be!

Date:

Astronomy

Nov. 14, 2017 Rise Set
Actual Time 7:23 AM EET 5:25 PM EET
Civil Twilight 6:54 AM EET 5:54 PM EET
Nautical Twilight 6:22 AM EET 6:26 PM EET
Astronomical Twilight 5:50 AM EET 6:58 PM EET
Moon 3:06 AM EET (11/14) 3:39 PM EET (11/14)
Length of Visible Light 10h 59m
Length of Day
10h 02m
Waning Crescent, 16% of the Moon is Illuminated
Nov 14
Waning Crescent
Nov 18
New
Nov 26
First Quarter
Dec 3
Full
Dec 10
Last Quarter

Hourly Weather History & Observations

Time (EET) Temp. Dew Point Humidity Pressure Visibility Wind Dir Wind Speed Gust Speed Precip Events Conditions
12:20 AM 64.4 °F 60.8 °F 88% 29.65 in 6.2 mi SSE 13.8 mph - N/A   Mostly Cloudy
12:50 AM 64.4 °F 59.0 °F 83% 29.65 in 6.2 mi SE 12.7 mph - N/A   Mostly Cloudy
1:20 AM 64.4 °F 59.0 °F 83% 29.65 in 6.2 mi SE 13.8 mph - N/A Thunderstorm Mostly Cloudy
1:50 AM 62.6 °F 57.2 °F 82% 29.65 in 6.2 mi SE 12.7 mph - N/A Thunderstorm Thunderstorm
2:00 AM 63 °F 57 °F 74% 29.67 in 6 mi SE 12.7 mph - - Thunderstorm Thunderstorm
2:20 AM 62.6 °F 59.0 °F 88% 29.65 in 6.2 mi ESE 9.2 mph - N/A Rain , Thunderstorm Light Thunderstorms and Rain
2:50 AM 60.8 °F 57.2 °F 88% 29.65 in 5.0 mi ESE 11.5 mph - N/A Rain , Thunderstorm Thunderstorms and Rain
3:20 AM 60.8 °F 59.0 °F 94% 29.65 in 3.7 mi WNW 4.6 mph - N/A Rain , Thunderstorm Thunderstorms and Rain
3:50 AM 60.8 °F 59.0 °F 94% 29.68 in 4.3 mi NNW 11.5 mph - N/A Rain , Thunderstorm Thunderstorms and Rain
4:20 AM 60.8 °F 59.0 °F 94% 29.68 in 3.7 mi NW 4.6 mph - N/A Rain , Thunderstorm Thunderstorms and Rain
4:50 AM 59.0 °F 57.2 °F 94% 29.68 in 3.7 mi South 4.6 mph - N/A Rain , Thunderstorm Thunderstorms and Rain
5:00 AM 58 °F 56 °F 92% 29.69 in 4 mi South 4.6 mph - - Rain , Thunderstorm Thunderstorms and Rain
5:20 AM 57.2 °F 55.4 °F 94% 29.68 in 4.3 mi SW 4.6 mph - N/A Rain , Thunderstorm Rain
5:50 AM 57.2 °F 55.4 °F 94% 29.68 in 4.3 mi North 8.1 mph - N/A Rain , Thunderstorm Rain
6:20 AM 57.2 °F 55.4 °F 94% 29.77 in 4.3 mi NNE 4.6 mph - N/A Rain Light Rain
6:50 AM 59.0 °F 57.2 °F 94% 29.71 in 3.7 mi Variable 3.5 mph - N/A Rain , Thunderstorm Thunderstorms and Rain
7:20 AM 57.2 °F 57.2 °F 100% 29.71 in 2.2 mi Variable 3.5 mph - N/A Rain , Thunderstorm Heavy Thunderstorms and Rain
7:50 AM 59.0 °F 57.2 °F 94% 29.71 in 5.0 mi SSE 17.3 mph - N/A Rain , Thunderstorm Light Thunderstorms and Rain
8:00 AM 58 °F 58 °F 98% 29.72 in 5 mi SSE 17.3 mph - - Rain , Thunderstorm Thunderstorms and Rain
8:20 AM 62.6 °F 59.0 °F 88% 29.71 in 6.2 mi SE 24.2 mph - N/A Thunderstorm Overcast
9:20 AM 62.6 °F 59.0 °F 88% 29.74 in 6.2 mi ESE 16.1 mph 31.1 mph N/A   Scattered Clouds
9:50 AM 62.6 °F 57.2 °F 82% 29.74 in 6.2 mi SE 16.1 mph - N/A   Scattered Clouds
10:20 AM 64.4 °F 57.2 °F 77% 29.74 in 6.2 mi SE 12.7 mph - N/A   Partly Cloudy
10:50 AM 64.4 °F 55.4 °F 73% 29.74 in 6.2 mi SE 18.4 mph - N/A   Scattered Clouds
11:00 AM 64 °F 55 °F 66% 29.76 in 12 mi SE 18.4 mph - -   Partly Cloudy
11:20 AM 64.4 °F 55.4 °F 73% 29.74 in 6.2 mi SE 21.9 mph - N/A   Scattered Clouds
11:50 AM 66.2 °F 55.4 °F 68% 29.74 in 6.2 mi SE 24.2 mph - N/A   Scattered Clouds
12:20 PM 66.2 °F 55.4 °F 68% 29.74 in 6.2 mi SE 20.7 mph 39.1 mph N/A   Scattered Clouds
12:50 PM 64.4 °F 57.2 °F 77% 29.74 in 6.2 mi SE 20.7 mph 32.2 mph N/A   Scattered Clouds
1:20 PM 64.4 °F 57.2 °F 77% 29.74 in 6.2 mi SE 20.7 mph 33.4 mph N/A   Scattered Clouds
1:50 PM 64.4 °F 57.2 °F 77% 29.74 in 6.2 mi ESE 18.4 mph - N/A   Scattered Clouds
2:00 PM 65 °F 57 °F 69% 29.76 in 12 mi ESE 18.4 mph - -   Partly Cloudy
2:20 PM 64.4 °F 57.2 °F 77% 29.74 in 6.2 mi ESE 16.1 mph 27.6 mph N/A   Overcast
2:50 PM 66.2 °F 57.2 °F 73% 29.74 in 6.2 mi ESE 16.1 mph - N/A   Overcast
3:20 PM 66.2 °F 57.2 °F 73% 29.74 in 6.2 mi SE 17.3 mph - N/A   Overcast
3:50 PM 66.2 °F 57.2 °F 73% 29.74 in 6.2 mi ESE 17.3 mph 28.8 mph N/A   Overcast
4:20 PM 64.4 °F 57.2 °F 77% 29.74 in 6.2 mi SE 18.4 mph - N/A Rain Light Rain
4:50 PM 64.4 °F 57.2 °F 77% 29.74 in 6.2 mi SE 16.1 mph - N/A Rain Light Rain
5:00 PM 65 °F 57 °F 68% 29.75 in 6 mi SE 16.1 mph - - Rain Light Rain
5:20 PM 64.4 °F 57.2 °F 77% 29.74 in 6.2 mi SE 17.3 mph 28.8 mph N/A   Overcast
5:50 PM 64.4 °F 57.2 °F 77% 29.74 in 6.2 mi SE 21.9 mph 33.4 mph N/A   Overcast
6:20 PM 64.4 °F 57.2 °F 77% 29.74 in 6.2 mi SE 21.9 mph 34.5 mph N/A Thunderstorm Overcast
6:50 PM 60.8 °F 55.4 °F 82% 29.80 in 3.7 mi South 16.1 mph - N/A Rain , Thunderstorm Thunderstorms and Rain
7:20 PM 60.8 °F 55.4 °F 82% 29.80 in 3.1 mi SSE 16.1 mph - N/A Rain , Thunderstorm Light Thunderstorms and Rain
7:50 PM 59.0 °F 55.4 °F 88% 29.80 in 5.0 mi ESE 12.7 mph - N/A Rain , Thunderstorm Light Thunderstorms and Rain
8:00 PM 59 °F 55 °F 82% 29.80 in 5 mi ESE 12.7 mph - - Rain , Thunderstorm Thunderstorms and Rain
8:20 PM 59.0 °F 55.4 °F 88% 29.80 in 5.0 mi SE 20.7 mph - N/A Rain , Thunderstorm Light Thunderstorms and Rain
8:50 PM 57.2 °F 55.4 °F 94% 29.83 in 2.5 mi South 26.5 mph - N/A Rain , Thunderstorm Thunderstorms and Rain
9:20 PM 57.2 °F 55.4 °F 94% 29.83 in 2.5 mi SSE 24.2 mph - N/A Rain , Thunderstorm Thunderstorms and Rain
9:50 PM 57.2 °F 57.2 °F 100% 29.83 in 3.1 mi SE 16.1 mph - N/A Rain , Thunderstorm Thunderstorms and Rain
10:20 PM 59.0 °F 57.2 °F 94% 29.83 in 6.2 mi SE 12.7 mph - N/A Rain Light Rain
10:50 PM 59.0 °F 57.2 °F 94% 29.83 in 6.2 mi SE 17.3 mph - N/A Rain Light Rain
11:00 PM 59 °F 58 °F 94% 29.84 in 6 mi SE 17.3 mph - - Rain Light Rain
11:20 PM 59.0 °F 57.2 °F 94% 29.83 in 6.2 mi SE 15.0 mph - N/A   Overcast
11:50 PM 62.6 °F 55.4 °F 77% 29.86 in 6.2 mi SE 17.3 mph - N/A Rain Light Rain